Overview Statistics Trail Chart Weather Telemetry Raw packets
 

This is the latest recevied weather packets stored in our database for station/object SQ9SMC-13. If no packets are shown the sender has not sent any weather packets the latest 10 day(s).

<< 76 77 78 79 80 81 82 >>
Time Temp. Humidity Pressure Rain* Wind** Luminosity Snow
1777141503 15° C 41% 1010.9 hPa 0 mm - 0 W/m² -
1777141203 15° C 41% 1010.8 hPa 0 mm - 0 W/m² -
1777140902 15° C 41% 1010.9 hPa 0 mm - 0 W/m² -
1777140602 15° C 41% 1010.5 hPa 0 mm - 0 W/m² -
1777140304 15° C 40% 1010.7 hPa 0 mm - 0 W/m² -
1777140004 15° C 40% 1010.8 hPa 0 mm - 1 W/m² -
1777139703 15° C 40% 1010.9 hPa 0 mm - 2 W/m² -
1777139402 15.56° C 39% 1011 hPa 0 mm - 4 W/m² -
1777139102 15.56° C 39% 1010.9 hPa 0 mm - 6 W/m² -
1777138804 15.56° C 39% 1011 hPa 0 mm - 8 W/m² -
1777138505 15.56° C 39% 1010.7 hPa 0 mm - 10 W/m² -
1777138207 16.11° C 38% 1010.9 hPa 0 mm - 12 W/m² -
1777137905 16.11° C 37% 1010.9 hPa 0 mm - 14 W/m² -
1777137605 16.11° C 37% 1010.8 hPa 0 mm - 18 W/m² -
1777137304 16.67° C 37% 1010.9 hPa 0 mm - 22 W/m² -
1777137004 16.67° C 37% 1011 hPa 0 mm - 24 W/m² -
1777136703 16.67° C 36% 1011 hPa 0 mm - 28 W/m² -
1777136402 16.67° C 36% 1010.9 hPa 0 mm - 31 W/m² -
1777136103 17.22° C 36% 1011 hPa 0 mm - 36 W/m² -
1777135804 17.22° C 35% 1011 hPa 0 mm - 41 W/m² -
1777135503 17.22° C 35% 1011.1 hPa 0 mm - 47 W/m² -
1777135203 17.78° C 35% 1011.2 hPa 0 mm - 46 W/m² -
1777134905 17.78° C 35% 1011.1 hPa 0 mm - 55 W/m² -
1777134602 17.78° C 36% 1011.2 hPa 0 mm - 60 W/m² -
1777134303 17.78° C 34% 1011.2 hPa 0 mm - 66 W/m² -

* Rain latest hour (hover to see other rain measurements)
** Current wind speed in m/s (hover to see current wind gust speed)